Погода в Буздяке

Россия / Республика Башкортостан     54°34′13″N   54°32′02″E
темп.,
°C
ветер,
м/с
пор.,
м/с
влажн.,
%
обл.,
%
осадки,
мм/ч
давл.,
гПа
погр.,
м
11 апреля, вс
вс1123:00+6ююв6158437 0.0 1029287
02:00+6ююв81984100 0.0 1028342
05:00+5ююв7177193 0.0 1029346
08:00+5ююв51272100 0.0 1030268
11:00+9ю6157087 0.0 1030447
14:00+12ю51067100 0.0 1031527
17:00+13ю366799 0.0 1031491
20:00+10ююв3378100 0.0 103222
12 апреля, пн
пн1223:00+8ю3279100 0.0 103317
02:00+7ю2281100 0.0 103412
05:00+6ююз1182100 0.0 103510
08:00+7ю1182100 0.0 103510
11:00+11вюв2267100 0.0 1035299
14:00+15вюв22565 0.0 1035682
17:00+16в225050 0.0 1034930
20:00+13в336262 0.0 103428
13 апреля, вт
вт1323:00+10в227143 0.0 103511
02:00+8вюв117834 0.0 103510
05:00+7ююв117877 0.0 103610
08:00+8ю227284 0.0 103624
11:00+13ю344685 0.0 1035513
14:00+16ю442923 0.0 1034910
17:00+17ю44295 0.0 10331065
20:00+13ю22445 0.0 103213
14 апреля, ср
ср1423:00+9ю22505 0.0 103211
02:00+8ю22545 0.0 103211
05:00+6ю22615 0.0 103211
08:00+7ю226351 0.0 103128
11:00+13ююз23445 0.0 1030438
14:00+16ююз33327 0.0 1028966
17:00+17юз23298 0.0 10261099
20:00+13зюз22434 0.0 102511
15 апреля, чт
чт1523:00+10юз11491 0.0 102510
02:00+9юз22520 0.0 102410
05:00+7зюз11540 0.0 102310
08:00+8юз11530 0.0 102211
11:00+14юз22371 0.0 1021407
14:00+17юз232815 0.0 10191052
17:00+18зюз332620 0.0 10171248
20:00+14зюз22415 0.0 101617